Cognac, France

7:10 PM CET on November 18, 2017 (GMT +0100)
Chateaubernard Air Base

Weather History for LFBG - November, 2012

Change the Weather History Date:

Sunday, November 18, 2012

  Actual Average Record
Temperature  
Mean Temperature 56 °F -  
Max Temperature 62 °F - - ()
Min Temperature 50 °F - - ()
Degree Days  
Heating Degree Days 9    
Growing Degree Days 6 (Base 50)    
Moisture  
Dew Point 50 °F    
Average Humidity 83    
Maximum Humidity 94    
Minimum Humidity 68    
Precipitation  
Precipitation 0.00 in - - ()
Sea Level Pressure  
Sea Level Pressure 29.85 in    
Wind  
Wind Speed 5 mph ()    
Max Wind Speed 9 mph    
Max Gust Speed -    
Visibility 6.0 miles    
Events      
T = Trace of Precipitation, MM = Missing Value Source: Averaged Metar Reports

Daily Weather History Graph

Daily Weather History Graph

Search for Another Location

Airport or City:

Trip Planner

Search our weather history database for the weather conditions in past years. The results will help you decide how hot, cold, wet, or windy it might be!

Date:

Astronomy

Nov. 18, 2012 Rise Set
Actual Time 8:05 AM CET 5:27 PM CET
Civil Twilight 7:32 AM CET 5:59 PM CET
Nautical Twilight 6:56 AM CET 6:36 PM CET
Astronomical Twilight 6:21 AM CET 7:11 PM CET
Moon 12:20 PM CET 10:33 PM CET
Length of Visible Light 10h 27m
Length of Day
9h 22m
Waxing Crescent, 27% of the Moon is Illuminated
Nov 18
Waxing Crescent
Nov 20
First Quarter
Nov 28
Full
Dec 6
Last Quarter
Dec 13
New

Hourly Weather History & Observations

Time (CET) Temp. Dew Point Humidity Pressure Visibility Wind Dir Wind Speed Gust Speed Precip Events Conditions
12:00 AM 55.4 °F 50.0 °F 82% 29.80 in 6.2 mi SE 5.8 mph - N/A   Unknown
12:30 AM 55.4 °F 50.0 °F 82% 29.80 in 6.2 mi SE 6.9 mph - N/A   Unknown
1:00 AM 53.6 °F 50.0 °F 88% 29.80 in 6.2 mi SE 6.9 mph - N/A   Unknown
1:30 AM 55.4 °F 50.0 °F 82% 29.80 in 6.2 mi SE 5.8 mph - N/A   Unknown
2:00 AM 53.6 °F 50.0 °F 88% 29.80 in 6.2 mi SE 6.9 mph - N/A   Unknown
2:30 AM 53.6 °F 50.0 °F 88% 29.80 in 6.2 mi SE 5.8 mph - N/A   Unknown
3:00 AM 53.6 °F 50.0 °F 88% 29.80 in 6.2 mi SE 4.6 mph - N/A   Unknown
3:30 AM 53.6 °F 50.0 °F 88% 29.80 in 6.2 mi ESE 5.8 mph - N/A   Unknown
4:00 AM 53.6 °F 50.0 °F 88% 29.80 in 6.2 mi East 5.8 mph - N/A   Unknown
4:30 AM 53.6 °F 48.2 °F 82% 29.80 in 6.2 mi East 3.5 mph - N/A   Unknown
5:00 AM 51.8 °F 50.0 °F 94% 29.80 in 6.2 mi SE 6.9 mph - N/A   Unknown
5:30 AM 53.6 °F 50.0 °F 88% 29.80 in 6.2 mi SE 5.8 mph - N/A   Unknown
6:00 AM 53.6 °F 50.0 °F 88% 29.80 in 6.2 mi SE 6.9 mph - N/A   Unknown
6:30 AM 51.8 °F 48.2 °F 88% 29.80 in 6.2 mi East 3.5 mph - N/A   Unknown
7:00 AM 50.0 °F 46.4 °F 87% 29.80 in 6.2 mi ESE 5.8 mph - N/A   Unknown
7:30 AM 51.8 °F 48.2 °F 88% 29.83 in 6.2 mi East 6.9 mph - N/A   Unknown
8:00 AM 51.8 °F 48.2 °F 88% 29.83 in 6.2 mi East 4.6 mph - N/A   Unknown
8:30 AM 51.8 °F 48.2 °F 88% 29.83 in 6.2 mi ENE 2.3 mph - N/A   Unknown
9:00 AM 51.8 °F 48.2 °F 88% 29.83 in 6.2 mi East 3.5 mph - N/A   Unknown
9:30 AM 53.6 °F 50.0 °F 88% 29.86 in 6.2 mi ESE 2.3 mph - N/A   Unknown
10:00 AM 55.4 °F 50.0 °F 82% 29.86 in 6.2 mi Variable 3.5 mph - N/A   Unknown
10:30 AM 57.2 °F 50.0 °F 77% 29.86 in 6.2 mi SSE 5.8 mph - N/A   Unknown
11:00 AM 57.2 °F 50.0 °F 77% 29.86 in 6.2 mi SE 8.1 mph - N/A   Partly Cloudy
11:30 AM 59.0 °F 50.0 °F 72% 29.86 in 6.2 mi SSE 5.8 mph - N/A   Overcast
12:00 PM 60.8 °F 51.8 °F 72% 29.86 in 6.2 mi SSE 3.5 mph - N/A   Unknown
12:30 PM 62.6 °F 51.8 °F 68% 29.86 in 6.2 mi South 3.5 mph - N/A   Overcast
1:00 PM 60.8 °F 51.8 °F 72% 29.86 in 6.2 mi SSE 5.8 mph - N/A   Overcast
1:30 PM 60.8 °F 51.8 °F 72% 29.86 in 6.2 mi Variable 2.3 mph - N/A   Overcast
2:00 PM 60.8 °F 51.8 °F 72% 29.86 in 6.2 mi Variable 1.2 mph - N/A   Overcast
2:30 PM 62.6 °F 51.8 °F 68% 29.86 in 6.2 mi Variable 2.3 mph - N/A   Mostly Cloudy
3:00 PM 62.6 °F 51.8 °F 68% 29.86 in 6.2 mi East 4.6 mph - N/A   Overcast
3:30 PM 60.8 °F 51.8 °F 72% 29.86 in 6.2 mi SE 6.9 mph - N/A   Mostly Cloudy
4:00 PM 60.8 °F 51.8 °F 72% 29.86 in 6.2 mi ESE 3.5 mph - N/A   Mostly Cloudy
4:30 PM 59.0 °F 51.8 °F 77% 29.86 in 6.2 mi SE 2.3 mph - N/A   Mostly Cloudy
5:00 PM 59.0 °F 51.8 °F 77% 29.86 in 6.2 mi Calm Calm - N/A   Unknown
5:30 PM 59.0 °F 51.8 °F 77% 29.89 in 6.2 mi Variable 1.2 mph - N/A   Overcast
6:00 PM 59.0 °F 53.6 °F 82% 29.89 in 6.2 mi NNW 4.6 mph - N/A   Overcast
6:30 PM 57.2 °F 51.8 °F 82% 29.89 in 6.2 mi North 6.9 mph - N/A   Overcast
7:00 PM 55.4 °F 51.8 °F 88% 29.92 in 6.2 mi North 8.1 mph - N/A   Overcast
7:30 PM 55.4 °F 51.8 °F 88% 29.92 in 6.2 mi North 9.2 mph - N/A   Overcast
8:00 PM 53.6 °F 51.8 °F 94% 29.92 in 6.2 mi North 9.2 mph - N/A   Mostly Cloudy
8:30 PM 53.6 °F 50.0 °F 88% 29.92 in 6.2 mi North 9.2 mph - N/A   Overcast
9:00 PM 53.6 °F 50.0 °F 88% 29.92 in 6.2 mi North 3.5 mph - N/A   Overcast
9:30 PM 53.6 °F 50.0 °F 88% 29.92 in 5.6 mi NNE 4.6 mph - N/A   Unknown
10:00 PM 53.6 °F 50.0 °F 88% 29.92 in 4.3 mi North 4.6 mph - N/A   Unknown
10:30 PM 51.8 °F 50.0 °F 94% 29.92 in 4.3 mi NNE 5.8 mph - N/A   Overcast
11:00 PM 51.8 °F 50.0 °F 94% 29.92 in 3.1 mi North 4.6 mph - N/A   Mist
11:30 PM 51.8 °F 50.0 °F 94% 29.92 in - North 2.3 mph - N/A   Mist